Location: Gila Cliff Dwellings National Monument
(33.2240°N, 108.2417°W)
Time: 14:26:22
(UTC-06:00)

Cosmos 2322 Rocket - Visible Passes

Search period start: 28 June 2016 00:00
Search period end: 08 July 2016 00:00
Orbit: 834 x 849 km, 71.0° (Epoch: 27 June)

Date Brightness Start Highest point End Pass type
(mag) Time Alt. Az. Time Alt. Az. Time Alt. Az.
28 Jun 4.4 22:18:22 10° WNW 22:22:07 18° W 22:25:52 10° SW visible
29 Jun 4.4 22:03:14 10° NW 22:07:10 20° W 22:11:05 10° SW visible
30 Jun 4.4 21:48:07 10° NW 21:52:12 21° W 21:56:16 10° SSW visible
01 Jul 4.3 21:33:01 10° NW 21:37:15 22° W 21:41:27 10° SSW visible
02 Jul 4.3 21:17:55 10° NW 21:22:16 24° W 21:26:38 10° SSW visible
03 Jul 4.3 21:02:49 10° NW 21:07:19 25° WSW 21:11:48 10° SSW visible
04 Jul 4.2 20:47:45 10° NW 20:52:21 27° WSW 20:56:57 10° SSW visible
